Location: Bun Machan
(52.1403°N, 7.3744°W)
Time: 18:11:17
(UTC+00:00)

SL-08 R/B - Pass Details

Date: 14 July 2020
Orbit: 674 x 739 km, 98.4° (Epoch: 13 August)

Event Time Altitude Azimuth Distance (km) Brightness Sun altitude
Rises 03:01:43 0° 163° (SSE) 3,075 6.3 -9.6°
Reaches altitude 10° 03:03:56 10° 163° (SSE) 2,171 5.5 -9.4°
Maximum altitude 03:08:42 90° 92° (E) 723 3.4 -9.0°
Drops below altitude 10° 03:13:37 10° 345° (NNW) 2,228 6.5 -8.6°
Sets 03:15:55 0° 346° (NNW) 3,162 7.3 -8.4°
